Вернуться в каталог

STARLINK-34595

АктивенСвязьVLEO
NORAD 64749·PAYLOAD·🇺🇸 United States

Запущен Jul 2, 2025 с Cape Canaveral Space Force Station

Loading…

Ближайшие Пролёты (ближайшие 24 часа)

TLE

СвежийSource: CelesTrak SupGP

Эпоха: Sep 15, 2026, 02:49 UTC

1 64749C 25144AB  26258.11784722  .00034422  00000+0  10171-2 0  2585
2 64749  53.1599  20.5321 0001284  89.1666 248.8156 15.34369428    18

Отслеживайте STARLINK-34595 в реальном времени с AllMySat

Download on the App Store